Weather History for Petersburg, AK

Change the Weather History Date:

Wednesday, March 19, 2014

  Actual Average Record
Temperature  
Mean Temperature 36 °F -  
Max Temperature 39 °F 38 °F 49 °F (1992)
Min Temperature 32 °F 27 °F 10 °F (2002)
Degree Days  
Heating Degree Days 30    
Moisture  
Dew Point 31 °F    
Average Humidity 86    
Maximum Humidity 93    
Minimum Humidity 70    
Precipitation  
Precipitation 0.00 in - - ()
Sea Level Pressure  
Sea Level Pressure 29.97 in    
Wind  
Wind Speed 1 mph (South)    
Max Wind Speed 7 mph    
Max Gust Speed -    
Visibility 8 miles    
Events Fog , Rain , Snow    
Averages and records for this station are not official NWS values.
T = Trace of Precipitation, MM = Missing Value Source: NWS Daily Summary

Daily Weather History Graph

Daily Weather History Graph

Search for Another Location

Airport:

Trip Planner

Search our weather history database for the weather conditions in past years. The results will help you decide how hot, cold, wet, or windy it might be!

Date:

Astronomy

Mar. 19, 2014 Rise Set
Actual Time 6:56 AM AKDT 7:04 PM AKDT
Civil Twilight 6:18 AM AKDT 7:42 PM AKDT
Nautical Twilight 5:33 AM AKDT 8:27 PM AKDT
Astronomical Twilight 4:45 AM AKDT 9:15 PM AKDT
Moon 11:13 PM AKDT (3/19) 7:50 AM AKDT (3/19)
Length of Visible Light 13h 23m
Length of Day
12h 08m
Waning Gibbous, 90% of the Moon is Illuminated
Mar 19
Waning Gibbous
Mar 23
Last Quarter
Mar 30
New
Apr 7
First Quarter
Apr 14
Full

Hourly Weather History & Observations

Time (AKDT) Temp. Windchill Dew Point Humidity Pressure Visibility Wind Dir Wind Speed Gust Speed Precip Events Conditions
5:55 AM 35.6 °F - 30.2 °F 81% 29.90 in 10.0 mi Calm Calm - N/A   Overcast
6:55 AM 35.6 °F - 30.2 °F 81% 29.90 in 10.0 mi Calm Calm - N/A   Overcast
7:55 AM 33.8 °F - 30.2 °F 87% 29.91 in 10.0 mi Calm Calm - N/A   Mostly Cloudy
8:55 AM 37.4 °F 34.9 °F 33.8 °F 87% 29.92 in 10.0 mi Variable 3.5 mph - N/A   Mostly Cloudy
9:55 AM 37.4 °F - 32.0 °F 81% 29.93 in 10.0 mi Calm Calm - N/A   Mostly Cloudy
10:55 AM 39.2 °F 37.0 °F 30.2 °F 70% 29.95 in 10.0 mi NE 3.5 mph - N/A   Mostly Cloudy
11:30 AM 37.4 °F 32.1 °F 32.0 °F 81% 29.95 in 7.0 mi SSW 6.9 mph - N/A Snow Light Snow Showers
11:55 AM 35.6 °F - 30.2 °F 81% 29.96 in 10.0 mi Calm Calm - N/A Snow Light Snow Showers
12:52 PM 33.8 °F 30.8 °F 30.2 °F 87% 29.97 in 7.0 mi SSW 3.5 mph - N/A Rain , Snow Light Rain
1:26 PM 33.8 °F 30.8 °F 30.2 °F 87% 29.98 in 2.5 mi SSW 3.5 mph - N/A Snow Light Snow
1:55 PM 33.8 °F - 30.2 °F 87% 29.99 in 2.5 mi Calm Calm - N/A Snow Light Snow
2:13 PM 33.8 °F - 30.2 °F 87% 29.99 in 4.0 mi Calm Calm - N/A Rain , Snow Light Rain
2:58 PM 35.6 °F - 32.0 °F 87% 29.99 in 7.0 mi Calm Calm - N/A Rain , Snow Light Rain
3:57 PM 33.8 °F - 30.2 °F 87% 30.00 in 10.0 mi Calm Calm - N/A Rain , Snow Light Rain
5:00 PM 35.6 °F - 32.0 °F 87% 30.00 in 10.0 mi Calm Calm - N/A Rain , Snow Light Rain
5:57 PM 35.6 °F 32.8 °F 33.8 °F 93% 30.01 in 10.0 mi South 3.5 mph - N/A Rain Light Rain
6:59 PM 33.8 °F 30.8 °F 30.2 °F 87% 30.02 in 10.0 mi South 3.5 mph - N/A   Mostly Cloudy
7:57 PM 32.0 °F - 28.4 °F 87% 30.03 in 7.0 mi Calm Calm - N/A Fog Patches of Fog
8:58 PM 32.0 °F 28.7 °F 30.2 °F 93% 30.04 in 3.0 mi South 3.5 mph - N/A   Mostly Cloudy
9:55 PM 32.0 °F - 30.2 °F 93% 30.06 in 10.0 mi Calm Calm - N/A   Overcast